Change the Weather History Date:

Tuesday, March 26, 2013

  Actual Average (KSEP) Record (KSEP)
Temperature  
Mean Temperature 44 °F -  
Max Temperature 61 °F 68 °F 88 °F (1956)
Min Temperature 26 °F 47 °F 19 °F (1955)
Degree Days  
Heating Degree Days 22    
Moisture  
Dew Point 25 °F    
Average Humidity 53    
Maximum Humidity 86    
Minimum Humidity 23    
Precipitation  
Precipitation 0.00 in - - ()
Sea Level Pressure  
Sea Level Pressure 30.40 in    
Wind  
Wind Speed 3 mph (ESE)    
Max Wind Speed 10 mph    
Max Gust Speed -    
Visibility 10 miles    
Events      
Averages and records for this station are not official NWS values.
T = Trace of Precipitation, MM = Missing Value Source: NWS Daily Summary

Daily Weather History Graph

Daily Weather History Graph

Search for Another Location

Airport or City:

Trip Planner

Search our weather history database for the weather conditions in past years. The results will help you decide how hot, cold, wet, or windy it might be!

Date:

Astronomy

Mar. 26, 2013 Rise Set
Actual Time 7:26 AM CDT 7:47 PM CDT
Civil Twilight 7:02 AM CDT 8:11 PM CDT
Nautical Twilight 6:33 AM CDT 8:40 PM CDT
Astronomical Twilight 6:04 AM CDT 9:09 PM CDT
Moon 7:24 PM CDT (3/26) 6:43 AM CDT (3/26)
Length of Visible Light 13h 09m
Length of Day
12h 20m
Waxing Gibbous, 99% of the Moon is Illuminated
Mar 26
Waxing Gibbous
Mar 27
Full
Apr 2
Last Quarter
Apr 10
New
Apr 18
First Quarter

Hourly Weather History & Observations

Time (CDT) Temp. Windchill Dew Point Humidity Pressure Visibility Wind Dir Wind Speed Gust Speed Precip Events Conditions
12:15 AM 36.7 °F 34.1 °F 23.5 °F 59% 30.43 in 10.0 mi WNW 3.5 mph - N/A   Clear
12:35 AM 35.4 °F - 25.0 °F 66% 30.43 in 10.0 mi Calm Calm - N/A   Clear
12:55 AM 33.8 °F 30.8 °F 24.8 °F 70% 30.43 in 10.0 mi WSW 3.5 mph - N/A   Clear
1:15 AM 32.7 °F - 25.7 °F 75% 30.42 in 10.0 mi Calm Calm - N/A   Clear
1:35 AM 32.2 °F 28.9 °F 24.6 °F 74% 30.42 in 10.0 mi West 3.5 mph - N/A   Clear
1:55 AM 31.5 °F 28.1 °F 25.0 °F 77% 30.42 in 10.0 mi WSW 3.5 mph - N/A   Clear
2:15 AM 31.8 °F 27.3 °F 24.3 °F 74% 30.42 in 10.0 mi SW 4.6 mph - N/A   Clear
2:35 AM 32.0 °F 28.7 °F 25.7 °F 78% 30.42 in 10.0 mi SW 3.5 mph - N/A   Clear
2:55 AM 31.6 °F - 23.7 °F 73% 30.42 in 10.0 mi Calm Calm - N/A   Clear
3:15 AM 31.1 °F - 24.4 °F 76% 30.42 in 10.0 mi Calm Calm - N/A   Clear
3:35 AM 30.7 °F - 24.8 °F 79% 30.42 in 10.0 mi Calm Calm - N/A   Clear
3:55 AM 30.0 °F 26.5 °F 24.8 °F 81% 30.42 in 10.0 mi WSW 3.5 mph - N/A   Clear
4:15 AM 29.7 °F 26.1 °F 24.8 °F 82% 30.41 in 10.0 mi WSW 3.5 mph - N/A   Clear
4:35 AM 30.0 °F - 24.6 °F 80% 30.41 in 10.0 mi Calm Calm - N/A   Clear
4:55 AM 29.3 °F - 23.7 °F 80% 30.42 in 10.0 mi Calm Calm - N/A   Clear
5:15 AM 29.5 °F - 24.6 °F 82% 30.42 in 10.0 mi Calm Calm - N/A   Clear
5:35 AM 28.8 °F - 23.2 °F 80% 30.42 in 10.0 mi Calm Calm - N/A   Clear
5:55 AM 28.9 °F - 23.7 °F 81% 30.43 in 10.0 mi Calm Calm - N/A   Clear
6:15 AM 27.7 °F - 23.4 °F 84% 30.44 in 10.0 mi Calm Calm - N/A   Clear
6:35 AM 27.5 °F - 23.5 °F 85% 30.45 in 10.0 mi Calm Calm - N/A   Clear
6:55 AM 26.6 °F - 22.8 °F 86% 30.46 in 10.0 mi Calm Calm - N/A   Clear
7:15 AM 26.6 °F - 22.8 °F 86% 30.47 in 10.0 mi Calm Calm - N/A   Clear
7:35 AM 26.6 °F - 22.6 °F 85% 30.47 in 10.0 mi Calm Calm - N/A   Clear
7:55 AM 28.9 °F - 24.4 °F 83% 30.48 in 10.0 mi Calm Calm - N/A   Clear
8:15 AM 29.7 °F - 25.5 °F 85% 30.49 in 10.0 mi Calm Calm - N/A   Clear
8:35 AM 30.9 °F - 25.7 °F 81% 30.50 in 10.0 mi Calm Calm - N/A   Clear
8:55 AM 32.9 °F - 27.0 °F 79% 30.51 in 10.0 mi Calm Calm - N/A   Clear
9:15 AM 34.9 °F - 28.0 °F 76% 30.51 in 10.0 mi Calm Calm - N/A   Clear
9:35 AM 38.1 °F - 27.9 °F 67% 30.52 in 10.0 mi Calm Calm - N/A   Clear
9:55 AM 40.6 °F 38.6 °F 24.3 °F 52% 30.52 in 10.0 mi NE 3.5 mph - N/A   Clear
10:15 AM 43.2 °F 40.5 °F 25.3 °F 49% 30.52 in 10.0 mi East 4.6 mph - N/A   Clear
10:35 AM 44.4 °F 42.0 °F 23.2 °F 43% 30.51 in 10.0 mi East 4.6 mph - N/A   Clear
10:55 AM 45.7 °F 44.4 °F 22.1 °F 39% 30.51 in 10.0 mi SSE 3.5 mph - N/A   Clear
11:15 AM 46.4 °F 45.2 °F 22.1 °F 38% 30.51 in 10.0 mi South 3.5 mph - N/A   Clear
11:35 AM 47.5 °F - 22.6 °F 38% 30.50 in 10.0 mi ENE 3.5 mph - N/A   Clear
11:55 AM 48.6 °F - 24.1 °F 38% 30.50 in 10.0 mi NE 3.5 mph - N/A   Clear
12:15 PM 49.6 °F - 23.2 °F 35% 30.49 in 10.0 mi Calm Calm - N/A   Clear
12:35 PM 51.3 °F - 24.4 °F 35% 30.48 in 10.0 mi ESE 5.8 mph - N/A   Clear
12:55 PM 51.8 °F - 24.4 °F 34% 30.47 in 10.0 mi ENE 4.6 mph - N/A   Clear
1:15 PM 52.5 °F - 24.3 °F 33% 30.46 in 10.0 mi East 6.9 mph - N/A   Clear
1:55 PM 53.6 °F - 24.3 °F 32% 30.43 in 10.0 mi ENE 4.6 mph - N/A   Clear
2:15 PM 55.0 °F - 24.8 °F 31% 30.42 in 10.0 mi ESE 6.9 mph - N/A   Clear
2:35 PM 55.4 °F - 24.6 °F 30% 30.41 in 10.0 mi ENE 4.6 mph - N/A   Clear
2:55 PM 55.6 °F - 25.2 °F 31% 30.39 in 10.0 mi East 6.9 mph - N/A   Clear
3:15 PM 57.0 °F - 24.4 °F 29% 30.39 in 10.0 mi ENE 4.6 mph - N/A   Clear
3:55 PM 58.5 °F - 25.9 °F 29% 30.35 in 10.0 mi East 5.8 mph - N/A   Clear
4:15 PM 59.0 °F - 25.7 °F 28% 30.34 in 10.0 mi East 6.9 mph - N/A   Clear
4:35 PM 59.2 °F - 24.8 °F 27% 30.33 in 10.0 mi ESE 3.5 mph - N/A   Clear
4:55 PM 60.1 °F - 25.3 °F 27% 30.32 in 10.0 mi Calm Calm - N/A   Clear
5:15 PM 60.6 °F - 24.1 °F 25% 30.32 in 10.0 mi North 3.5 mph - N/A   Clear
5:35 PM 60.8 °F - 22.8 °F 23% 30.31 in 10.0 mi Calm Calm - N/A   Clear
5:55 PM 61.0 °F - 23.7 °F 24% 30.30 in 10.0 mi SSE 8.1 mph - N/A   Clear
6:15 PM 60.8 °F - 24.1 °F 25% 30.30 in 10.0 mi East 5.8 mph - N/A   Clear
6:35 PM 60.8 °F - 24.3 °F 25% 30.29 in 10.0 mi East 8.1 mph - N/A   Clear
6:55 PM 59.9 °F - 23.9 °F 25% 30.29 in 10.0 mi ESE 10.4 mph - N/A   Clear
7:15 PM 59.4 °F - 24.1 °F 26% 30.28 in 10.0 mi East 6.9 mph - N/A   Clear
7:35 PM 58.3 °F - 25.2 °F 28% 30.28 in 10.0 mi East 6.9 mph - N/A   Clear
7:55 PM 56.5 °F - 26.6 °F 32% 30.28 in 10.0 mi ESE 6.9 mph - N/A   Clear
8:15 PM 55.4 °F - 25.9 °F 32% 30.29 in 10.0 mi ESE 6.9 mph - N/A   Clear
8:35 PM 54.1 °F - 26.8 °F 35% 30.29 in 10.0 mi ESE 5.8 mph - N/A   Clear
8:55 PM 53.1 °F - 27.1 °F 37% 30.29 in 10.0 mi ESE 5.8 mph - N/A   Clear
9:15 PM 52.2 °F - 27.0 °F 38% 30.29 in 10.0 mi ESE 5.8 mph - N/A   Clear
9:35 PM 51.3 °F - 27.9 °F 40% 30.30 in 10.0 mi ESE 6.9 mph - N/A   Clear
9:55 PM 50.5 °F - 27.9 °F 42% 30.30 in 10.0 mi ESE 6.9 mph - N/A   Clear
10:15 PM 49.6 °F - 28.0 °F 43% 30.30 in 10.0 mi ESE 6.9 mph - N/A   Clear
10:35 PM 49.1 °F - 29.5 °F 47% 30.30 in 10.0 mi ESE 5.8 mph - N/A   Clear
10:55 PM 49.1 °F - 29.1 °F 46% 30.30 in 10.0 mi ESE 6.9 mph - N/A   Clear
11:15 PM 48.0 °F - 28.8 °F 47% 30.31 in 10.0 mi ESE 5.8 mph - N/A   Clear
11:35 PM 47.5 °F - 28.0 °F 47% 30.31 in 10.0 mi SE 8.1 mph - N/A   Clear
11:55 PM 48.0 °F - 27.3 °F 45% 30.30 in 10.0 mi ESE 8.1 mph - N/A   Clear